Location: Lafig�re
(44.4503°N, 4.0357°E)
Time: 09:55:35
(UTC+00:00)

SR - All Passes

Search period start: 24 January 2021 00:00
Search period end: 03 February 2021 00:00
Orbit: 575 x 880 km, 66.7° (Epoch: 23 January)

Date Brightness Start Highest point End Pass type
(mag) Time Alt. Az. Time Alt. Az. Time Alt. Az.
24 Jan - 03:44:10 10° S 03:48:34 41° ESE 03:53:23 10° NE visible
24 Jan - 05:26:25 10° WSW 05:30:46 31° NW 05:35:29 10° NNE visible
24 Jan - 10:41:36 10° N 10:44:38 14° NNE 10:47:44 10° ENE daylight
24 Jan - 12:22:24 10° NNW 12:28:03 52° NE 12:33:50 10° SE daylight
24 Jan - 14:04:56 10° NW 14:09:57 30° WSW 14:15:01 10° SSW daylight
25 Jan - 02:55:44 10° SSE 02:59:11 20° ESE 03:02:52 10° ENE visible
25 Jan - 04:36:01 10° SW 04:40:43 56° NW 04:45:56 10° NNE visible
25 Jan - 06:21:33 10° WNW 06:24:07 14° NNW 06:26:47 10° N visible
25 Jan - 11:32:53 10° NNW 11:38:00 32° NE 11:43:15 10° ESE daylight
25 Jan - 13:14:43 10° NW 13:20:25 55° WSW 13:26:10 10° SSE daylight
26 Jan - 03:46:10 10° SSW 03:50:55 77° ESE 03:56:11 10° NE visible
26 Jan - 05:29:57 10° W 05:33:42 21° NW 05:37:41 10° N visible
26 Jan - 10:43:31 10° N 10:47:46 21° NE 10:52:05 10° E daylight
26 Jan - 12:24:51 10° NNW 12:30:42 84° ENE 12:36:39 10° SSE daylight
26 Jan - 14:08:27 10° WNW 14:12:08 17° WSW 14:15:50 10° SW daylight
27 Jan - 02:56:58 10° S 03:01:21 38° ESE 03:06:08 10° NE visible
27 Jan - 04:39:03 10° WSW 04:43:28 33° NW 04:48:18 10° NNE visible
27 Jan - 09:54:25 10° N 09:57:20 14° NNE 10:00:17 10° ENE daylight
27 Jan - 11:35:10 10° NNW 11:40:49 49° NE 11:46:33 10° SE daylight
27 Jan - 13:17:38 10° NW 13:22:45 32° WSW 13:27:54 10° S daylight
28 Jan - 02:08:39 10° SSE 02:11:59 19° ESE 02:15:31 10° ENE visible
28 Jan - 03:48:42 10° SW 03:53:28 60° NW 03:58:43 10° NNE visible
28 Jan - 05:34:02 10° WNW 05:36:47 14° NNW 05:39:40 10° N visible
28 Jan - 10:45:40 10° NNW 10:50:45 30° NE 10:55:54 10° ESE daylight
28 Jan - 12:27:27 10° NW 12:33:12 59° WSW 12:38:59 10° SSE daylight
29 Jan - 02:58:55 10° SSW 03:03:41 72° ESE 03:08:56 10° NE visible
29 Jan - 04:42:31 10° W 04:46:23 22° NW 04:50:32 10° N visible
29 Jan - 09:56:19 10° N 10:00:28 20° NE 10:04:42 10° E daylight
29 Jan - 11:37:36 10° NNW 11:43:28 80° ENE 11:49:24 10° SE daylight
29 Jan - 13:21:04 10° WNW 13:24:57 18° WSW 13:28:50 10° SSW daylight
30 Jan - 02:09:47 10° S 02:14:07 36° ESE 02:18:51 10° NE visible
30 Jan - 03:51:41 10° WSW 03:56:11 35° NW 04:01:07 10° NNE visible
30 Jan - 05:39:13 10° NNW 05:40:02 10° NNW 05:40:52 10° NNW visible
30 Jan - 09:07:15 10° N 09:10:01 13° NNE 09:12:50 10° ENE daylight
30 Jan - 10:47:57 10° NNW 10:53:34 47° NE 10:59:15 10° SE daylight
30 Jan - 12:30:20 10° NW 12:35:33 34° WSW 12:40:48 10° S daylight
31 Jan - 01:21:34 10° SSE 01:24:47 18° ESE 01:28:10 10° ENE night (unlit)
31 Jan - 03:01:24 10° SW 03:06:12 64° NW 03:11:31 10° NNE visible
31 Jan - 04:46:31 10° WNW 04:49:28 15° NNW 04:52:33 10° N visible
31 Jan - 09:58:27 10° NNW 10:03:27 29° NE 10:08:34 10° ESE daylight
31 Jan - 11:40:12 10° NW 11:45:59 62° WSW 11:51:48 10° SSE daylight
01 Feb - 02:11:40 10° SSW 02:16:26 68° ESE 02:21:42 10° NE visible
01 Feb - 03:55:06 10° W 03:59:05 23° NW 04:03:21 10° NNE visible
01 Feb - 09:09:07 10° N 09:13:11 19° NE 09:17:18 10° E daylight
01 Feb - 10:50:22 10° NNW 10:56:14 76° ENE 11:02:10 10° SE daylight
01 Feb - 12:33:41 10° WNW 12:37:46 20° WSW 12:41:50 10° SSW daylight
02 Feb - 01:22:36 10° S 01:26:54 34° ESE 01:31:34 10° NE night (unlit)
02 Feb - 03:04:18 10° WSW 03:08:55 37° NW 03:13:55 10° NNE visible
02 Feb - 04:51:23 10° NW 04:52:42 11° NNW 04:54:02 10° N visible
02 Feb - 08:20:04 10° N 08:22:41 13° NNE 08:25:22 10° NE daylight
02 Feb - 10:00:43 10° NNW 10:06:19 45° NE 10:11:57 10° ESE daylight
02 Feb - 11:43:02 10° NW 11:48:21 36° WSW 11:53:40 10° S daylight
